Tracking 29892 objects as of 21-Nov-2024
HD Live streaming from Space Station
objects crossing your sky now

STARLINK-31415

Track STARLINK-31415 now!
10-day predictions
STARLINK-31415 is classified as:


NORAD ID: 59419
Int'l Code: 2024-064X
Perigee: 450.0 km
Apogee: 452.4 km
Inclination: 43.0 °
Period: 93.5 minutes
Semi major axis: 6822 km
RCS: Unknown
Launch date: April 5, 2024
Source: United States (US)
Launch site: AIR FORCE EASTERN TEST RANGE (AFETR)
Your satellite tracking list
Your tracking list is empty




NASA's NSSDC Master Catalog

Two Line Element Set (TLE):
1 59419U 24064X   24326.13691424  .00000763  00000-0  25535-4 0  9991
2 59419  43.0016 219.9360 0001782 263.7286  96.3368 15.40688103 36691
Source of the keplerian elements: AFSPC